Miscellaneous Local Product
Issued by NWS Hastings, NE

Home | Current Version | Previous Version | Graphics & Text | Print | Product List | Glossary On
Versions: 1 2 3 4 5 6 7 8 9 10 11 12 13 14 15 16 17 18 19 20 21 22 23 24 25 26 27 28 29 30 31 32 33 34 35 36 37 38 39 40 41 42 43 44 45 46 47 48 49 50
000
AXUS43 KGID 252202
MISGRI

GID CWA HOURLY WEATHER ROUNDUP
NATIONAL WEATHER SERVICE HASTINGS NE
500 PM CDT MON JUL 25 2016

NOTE: "FAIR" INDICATES FEW OR NO CLOUDS BELOW 12,000 FEET WITH NO
SIGNIFICANT WEATHER AND/OR OBSTRUCTIONS TO VISIBILITY.

...SOUTH CENTRAL NEBRASKA...

CITY           SKY/WX    TMP DP  RH WIND       PRES   REMARKS
GRAND ISLAND   SUNNY     85  61  44 SE9       30.08F
HASTINGS       SUNNY     87  55  33 S10       30.08F
KEARNEY        SUNNY     86  64  48 SE13      30.09F
ORD            SUNNY     86  59  39 SE13      30.07F
YORK           SUNNY     82  64  54 E8        30.07F
AURORA         SUNNY     84  62  47 SE6       30.07F
LEXINGTON      SUNNY     85  66  52 SE10      30.08F
HOLDREGE       SUNNY     85  64  49 SE12      30.08F
HEBRON         SUNNY     87  59  38 NE7       30.05F

...NEBRASKA PANHANDLE...

CITY           SKY/WX    TMP DP  RH WIND       PRES   REMARKS
CHADRON        SUNNY     93  54  26 S21G26    30.01F HX  91
ALLIANCE       SUNNY     87  59  38 S21G28    30.08F
SCOTTSBLUFF    SUNNY     94  54  25 S13       30.05F HX  92
SIDNEY         SUNNY     88  59  37 S20G31    30.13F

...WESTERN AND NORTH CENTRAL NEBRASKA...

CITY           SKY/WX    TMP DP  RH WIND       PRES   REMARKS
VALENTINE      SUNNY     91  55  29 S16G25    30.06F
AINSWORTH      SUNNY     88  55  32 SE20      30.08F
ONEILL         SUNNY     90  48  23 S14       30.08F
BROKEN BOW     SUNNY     84  58  40 SE12      30.09F
IMPERIAL       MOSUNNY   89  57  33 S18       30.09F
NORTH PLATTE   SUNNY     86  66  51 S12       30.08F
MCCOOK         MOSUNNY   89  65  44 SE15G23   30.07F HX  91

...EASTERN NEBRASKA...

CITY           SKY/WX    TMP DP  RH WIND       PRES   REMARKS
NORFOLK        SUNNY     85  57  38 SE8       30.08F
SO SIOUX CITY  SUNNY     88  61  40 SE6       30.06F
TEKAMAH        SUNNY     86  61  42 VRB5      30.06F
COLUMBUS       SUNNY     84  61  45 E6        30.07F
ALBION         SUNNY     83  62  47 SE7       30.09F
OMAHA EPPLEY   MOSUNNY   88  63  43 NE10      30.05F
OFFUTT AFB     SUNNY     88  64  45 N7        30.05F
MILLARD        SUNNY     88  58  36 CALM      30.05F
LINCOLN        SUNNY     87  62  43 NE10      30.06F
NEBRASKA CITY  SUNNY     83  66  55 NE10      30.05F
BEATRICE       SUNNY     87  59  39 NE7       30.05F
FALLS CITY     SUNNY     86  68  54 NE7       30.03F

...NORTHERN KANSAS...

CITY           SKY/WX    TMP DP  RH WIND       PRES   REMARKS
GOODLAND       MOSUNNY   83  63  50 SE12      30.12F
HILL CITY      MOSUNNY   87  66  49 VRB7      30.06F
NORTON         CLEAR     88  57  35 SE9G17    30.06F
SMITH CENTER   SUNNY     86  64  48 SE6       30.07F
BELOIT         SUNNY     86  70  58 NE6       30.03F HX  90
HAYS           MOSUNNY   84  64  51 E10       30.05F
RUSSELL        SUNNY     85  67  54 E9        30.04F
CONCORDIA      SUNNY     85  67  54 E5        30.05F
SALINA         SUNNY     87  68  52 NE7       30.04F HX  90
TOPEKA           N/A     84  69  60 NE9       30.03F



USA.gov is the U.S. government's official web portal to all federal, state and local government web resources and services.